Camden, SC

1:22 AM EDT on August 20, 2017 (GMT -0400)
Woodward

Weather History for KCDN - December, 2012

Change the Weather History Date:

Wednesday, December 12, 2012

  Actual Average (KSSC) Record (KSSC)
Temperature  
Mean Temperature 47 °F -  
Max Temperature 53 °F 56 °F 80 °F (2007)
Min Temperature 39 °F 35 °F 28 °F (2010)
Degree Days  
Heating Degree Days 18    
Moisture  
Dew Point 39 °F    
Average Humidity 76    
Maximum Humidity 100    
Minimum Humidity 54    
Precipitation  
Precipitation 1.44 in - - ()
Sea Level Pressure  
Sea Level Pressure 30.21 in    
Wind  
Wind Speed 10 mph (NNE)    
Max Wind Speed 16 mph    
Max Gust Speed 23 mph    
Visibility 8 miles    
Events Rain    
Averages and records for this station are not official NWS values.
T = Trace of Precipitation, MM = Missing Value Source: NWS Daily Summary

Daily Weather History Graph

Daily Weather History Graph

Search for Another Location

Airport or City:

Trip Planner

Search our weather history database for the weather conditions in past years. The results will help you decide how hot, cold, wet, or windy it might be!

Date:

Astronomy

Dec. 12, 2012 Rise Set
Actual Time 7:19 AM EST 5:13 PM EST
Civil Twilight 6:51 AM EST 5:40 PM EST
Nautical Twilight 6:20 AM EST 6:12 PM EST
Astronomical Twilight 5:49 AM EST 6:42 PM EST
Moon 6:22 AM EST (12/12) 4:47 PM EST (12/12)
Length of Visible Light 10h 49m
Length of Day
9h 53m
Waning Crescent, 1% of the Moon is Illuminated
Dec 12
Waning Crescent
Dec 13
New
Dec 20
First Quarter
Dec 28
Full
Jan 4
Last Quarter

Hourly Weather History & Observations

Time (EST) Temp. Windchill Dew Point Humidity Pressure Visibility Wind Dir Wind Speed Gust Speed Precip Events Conditions
12:15 AM 53.6 °F - 37.4 °F 54% 30.12 in 10.0 mi NNE 9.2 mph - 0.00 in   Mostly Cloudy
12:35 AM 53.6 °F - 37.4 °F 54% 30.12 in 10.0 mi North 6.9 mph - 0.00 in   Mostly Cloudy
12:55 AM 51.8 °F - 37.4 °F 58% 30.12 in 10.0 mi NNE 6.9 mph - 0.00 in   Scattered Clouds
1:15 AM 51.8 °F - 37.4 °F 58% 30.12 in 10.0 mi NE 8.1 mph - 0.00 in   Partly Cloudy
1:35 AM 51.8 °F - 37.4 °F 58% 30.13 in 10.0 mi NNE 8.1 mph - 0.00 in   Clear
1:55 AM 51.8 °F - 35.6 °F 54% 30.13 in 10.0 mi North 8.1 mph - 0.00 in   Partly Cloudy
2:15 AM 51.8 °F - 35.6 °F 54% 30.14 in 10.0 mi North 6.9 mph - 0.00 in   Scattered Clouds
2:35 AM 50.0 °F - 35.6 °F 58% 30.14 in 10.0 mi NNE 9.2 mph - 0.00 in   Partly Cloudy
2:55 AM 50.0 °F - 35.6 °F 58% 30.13 in 10.0 mi NNE 12.7 mph - 0.00 in   Scattered Clouds
3:15 AM 48.2 °F - 35.6 °F 62% 30.14 in 10.0 mi NNE 9.2 mph - 0.00 in   Scattered Clouds
3:35 AM 48.2 °F - 35.6 °F 62% 30.16 in 10.0 mi NE 6.9 mph - 0.00 in   Mostly Cloudy
3:55 AM 48.2 °F - 33.8 °F 58% 30.15 in 10.0 mi NNE 6.9 mph - 0.00 in   Mostly Cloudy
4:15 AM 48.2 °F - 35.6 °F 62% 30.17 in 10.0 mi NNE 5.8 mph - 0.00 in   Scattered Clouds
4:35 AM 48.2 °F - 35.6 °F 62% 30.16 in 10.0 mi North 9.2 mph - 0.00 in   Mostly Cloudy
4:55 AM 48.2 °F - 35.6 °F 62% 30.15 in 10.0 mi North 8.1 mph - 0.00 in   Mostly Cloudy
5:15 AM 48.2 °F - 35.6 °F 62% 30.17 in 10.0 mi North 8.1 mph - 0.00 in   Overcast
5:35 AM 48.2 °F - 35.6 °F 62% 30.17 in 10.0 mi NNE 9.2 mph - 0.00 in   Overcast
5:55 AM 48.2 °F - 35.6 °F 62% 30.16 in 10.0 mi NNE 10.4 mph - 0.00 in   Overcast
6:15 AM 48.2 °F - 35.6 °F 62% 30.18 in 10.0 mi North 10.4 mph - 0.00 in   Overcast
6:35 AM 48.2 °F - 35.6 °F 62% 30.18 in 10.0 mi NNE 9.2 mph - 0.00 in   Light Drizzle
6:55 AM 48.2 °F - 35.6 °F 62% 30.18 in 10.0 mi NNE 9.2 mph - 0.00 in   Mostly Cloudy
7:15 AM 46.4 °F 42.4 °F 35.6 °F 66% 30.20 in 10.0 mi North 8.1 mph - 0.00 in   Partly Cloudy
7:35 AM 46.4 °F 41.9 °F 35.6 °F 66% 30.20 in 10.0 mi NE 9.2 mph - 0.00 in   Partly Cloudy
8:15 AM 46.4 °F 41.5 °F 35.6 °F 66% 30.21 in 10.0 mi NNE 10.4 mph - 0.00 in   Scattered Clouds
8:35 AM 46.4 °F 40.7 °F 35.6 °F 66% 30.21 in 10.0 mi NE 12.7 mph - 0.00 in   Mostly Cloudy
8:55 AM 46.4 °F 40.7 °F 35.6 °F 66% 30.21 in 10.0 mi NNE 12.7 mph 17.3 mph 0.00 in   Partly Cloudy
9:15 AM 48.2 °F - 35.6 °F 62% 30.22 in 10.0 mi NE 10.4 mph - 0.00 in   Mostly Cloudy
9:35 AM 48.2 °F - 37.4 °F 66% 30.21 in 10.0 mi NE 16.1 mph - 0.00 in   Scattered Clouds
9:55 AM 48.2 °F - 37.4 °F 66% 30.23 in 10.0 mi NE 16.1 mph 19.6 mph 0.00 in   Mostly Cloudy
10:15 AM 48.2 °F - 39.2 °F 71% 30.22 in 10.0 mi NE 13.8 mph 23.0 mph 0.00 in   Mostly Cloudy
10:35 AM 48.2 °F - 39.2 °F 71% 30.23 in 10.0 mi ENE 10.4 mph 19.6 mph 0.00 in   Overcast
10:55 AM 48.2 °F - 39.2 °F 71% 30.25 in 10.0 mi NE 11.5 mph 17.3 mph 0.00 in   Overcast
11:15 AM 50.0 °F - 39.2 °F 66% 30.25 in 10.0 mi NE 8.1 mph 16.1 mph 0.00 in   Overcast
11:35 AM 50.0 °F - 41.0 °F 71% 30.25 in 10.0 mi NE 11.5 mph - 0.00 in   Overcast
11:55 AM 50.0 °F - 42.8 °F 76% 30.23 in 6.0 mi NE 9.2 mph - 0.00 in Rain Light Rain
12:15 PM 50.0 °F - 42.8 °F 76% 30.22 in 10.0 mi NNE 11.5 mph - 0.00 in   Overcast
12:35 PM 48.2 °F - 42.8 °F 82% 30.23 in 9.0 mi NNE 10.4 mph - 0.00 in   Overcast
12:55 PM 48.2 °F - 42.8 °F 82% 30.22 in 8.0 mi NNE 11.5 mph - 0.00 in Rain Light Rain
1:15 PM 48.2 °F - 42.8 °F 82% 30.21 in 8.0 mi NNE 12.7 mph 16.1 mph 0.00 in   Overcast
1:35 PM 50.0 °F - 41.0 °F 71% 30.21 in 9.0 mi NNE 13.8 mph - 0.00 in   Overcast
1:55 PM 50.0 °F - 41.0 °F 71% 30.21 in 10.0 mi NNE 12.7 mph - 0.00 in   Overcast
2:15 PM 48.2 °F - 41.0 °F 76% 30.22 in 10.0 mi NNE 9.2 mph - 0.00 in   Overcast
2:35 PM 48.2 °F - 41.0 °F 76% 30.22 in 9.0 mi NNE 10.4 mph - 0.00 in   Overcast
2:55 PM 48.2 °F - 42.8 °F 82% 30.22 in 6.0 mi NNE 11.5 mph - 0.00 in Rain Light Rain
3:15 PM 46.4 °F 42.4 °F 42.8 °F 87% 30.23 in 3.0 mi North 8.1 mph - 0.04 in Rain Rain
3:35 PM 46.4 °F 41.9 °F 42.8 °F 87% 30.21 in 3.0 mi NNE 9.2 mph - 0.09 in Rain Light Rain
3:55 PM 46.4 °F 42.4 °F 42.8 °F 87% 30.23 in 3.0 mi NNE 8.1 mph - 0.12 in Rain Rain
4:15 PM 44.6 °F 38.8 °F 42.8 °F 93% 30.23 in 3.0 mi NNE 11.5 mph - 0.03 in Rain Rain
4:35 PM 44.6 °F 38.4 °F 42.8 °F 93% 30.24 in 4.0 mi NNE 12.7 mph - 0.05 in Rain Light Rain
4:55 PM 44.6 °F 38.1 °F 42.8 °F 93% 30.23 in 4.0 mi NNE 13.8 mph - 0.06 in Rain Light Rain
5:15 PM 44.6 °F 38.8 °F 42.8 °F 93% 30.23 in 3.0 mi NE 11.5 mph - 0.05 in Rain Heavy Rain
5:35 PM 42.8 °F 36.6 °F 42.8 °F 100% 30.23 in 3.0 mi NE 11.5 mph - 0.12 in Rain Light Rain
5:55 PM 42.8 °F 36.2 °F 41.0 °F 93% 30.23 in 5.0 mi NE 12.7 mph 18.4 mph 0.14 in Rain Rain
6:15 PM 42.8 °F 38.0 °F 41.0 °F 93% 30.27 in 4.0 mi NNE 8.1 mph - 0.03 in Rain Rain
6:35 PM 42.8 °F 36.6 °F 41.0 °F 93% 30.26 in 3.0 mi NE 11.5 mph 16.1 mph 0.16 in Rain Heavy Rain
6:55 PM 42.8 °F 38.0 °F 41.0 °F 93% 30.27 in 3.0 mi NNE 8.1 mph - 0.26 in Rain Heavy Rain
7:15 PM 42.8 °F 37.0 °F 41.0 °F 93% 30.26 in 3.0 mi NNE 10.4 mph 16.1 mph 0.06 in Rain Rain
7:35 PM 42.8 °F 36.6 °F 41.0 °F 93% 30.24 in 3.0 mi ENE 11.5 mph - 0.15 in Rain Heavy Rain
7:55 PM 41.0 °F 34.7 °F 39.2 °F 93% 30.25 in 3.0 mi ENE 10.4 mph - 0.42 in Rain Heavy Rain
8:15 PM 41.0 °F 34.7 °F 39.2 °F 93% 30.25 in 3.0 mi NE 10.4 mph - 0.09 in Rain Heavy Rain
8:35 PM 41.0 °F 33.5 °F 39.2 °F 93% 30.23 in 2.5 mi NE 13.8 mph - 0.22 in Rain Heavy Rain
8:55 PM 41.0 °F 34.3 °F 39.2 °F 93% 30.25 in 3.0 mi NNE 11.5 mph 16.1 mph 0.30 in Rain Rain
9:15 PM 41.0 °F 34.3 °F 39.2 °F 93% 30.25 in 7.0 mi NNE 11.5 mph - 0.00 in   Overcast
9:35 PM 41.0 °F 33.9 °F 39.2 °F 93% 30.24 in 10.0 mi NE 12.7 mph 21.9 mph 0.00 in   Overcast
9:55 PM 41.0 °F 35.2 °F 39.2 °F 93% 30.25 in 8.0 mi NE 9.2 mph - 0.00 in Rain Light Rain
10:35 PM 41.0 °F 34.7 °F 39.2 °F 93% 30.24 in 5.0 mi NNE 10.4 mph - 0.03 in Rain Light Rain
10:55 PM 41.0 °F 35.2 °F 39.2 °F 93% 30.25 in 8.0 mi NE 9.2 mph - 0.04 in   Overcast
11:15 PM 41.0 °F 34.7 °F 39.2 °F 93% 30.25 in 4.0 mi NE 10.4 mph 19.6 mph 0.01 in Rain Rain
11:35 PM 41.0 °F 35.2 °F 39.2 °F 93% 30.27 in 3.0 mi North 9.2 mph - 0.06 in Rain Light Rain
11:55 PM 39.2 °F 33.0 °F 39.2 °F 100% 30.29 in 2.0 mi North 9.2 mph - 0.10 in Rain Rain